Lid_Strength_Index
0 -1 -1 -1 -1 -1 -1 -1 -1 -1 -1 -1 -1 -2 -2 -2 -1 -1 -1 -1 -2 -2 -2 -2 -2 -2 -2 -2 -2 -1 -1 -1 -2
0 1 -0 -0 -1 -1 -1 -1 -1 -1 -1 -1 -1 -2 -2 -1 -1 -1 -1 -1 -2 -2 -1 -2 -2 -2 -2 -2 -1 -1 -1 -2 -2
-1 1 1 0 -0 -0 -1 -1 -1 -1 -1 -1 -1 -1 -2 -1 -1 -1 -1 -2 -2 -2 -2 -2 -1 -1 -2 -2 -2 -1 -1 -1 -2
1 0 1 1 1 0 -0 -1 -1 -1 -1 -1 -1 -1 -1 -1 -1 -1 -1 -2 -2 -2 -2 -1 -2 -1 -1 -2 -1 -1 -1 -2 -1
2 2 1 2 2 1 1 1 1 -1 -0 -1 -1 -1 -1 -1 -1 -1 -1 -2 -2 -2 -2 -1 -2 -1 -1 -1 -1 -1 -1 -1 -1
3 3 2 1 2 2 2 2 2 2 -0 -1 0 -1 -1 -0 -0 -1 -2 -2 -2 -2 -1 -2 -1 -2 -1 -1 -0 -0 -0 0 -0
5 3 3 2 2 2 3 3 3 4 3 -0 1 0 -1 -1 -0 -1 -2 -2 -2 -2 -2 -1 -1 -1 -1 -1 0 1 0 1 1
6 5 4 3 2 2 3 5 5 5 4 2 1 -0 -0 -1 -1 -1 -2 -2 -2 -1 -0 -1 -1 -1 -1 -0 0 0 1 1 1
6 6 6 5 3 3 2 3 5 4 5 4 2 1 0 -0 -0 -0 -2 -2 -2 -1 -1 -1 -1 -1 -0 -0 1 1 1 1 1
7 6 6 6 5 5 4 2 2 3 4 4 3 2 2 1 0 -0 -1 -2 -2 -1 -1 -0 -0 -1 -0 -0 0 1 1 1 2
7 7 7 6 6 5 4 3 2 1 2 3 3 3 2 2 1 0 0 -0 -1 -2 -1 -1 -0 -0 -0 0 1 1 1 1 1
8 7 7 7 6 6 5 4 3 1 1 1 2 2 3 3 3 1 0 1 1 -1 -1 -1 -0 -0 -0 -0 1 1 1 1 1
8 8 8 7 7 6 6 4 4 3 2 2 1 2 3 4 3 2 1 1 1 1 -0 -1 -1 -1 -0 -0 -0 1 1 1 1
9 9 9 8 7 7 6 5 4 4 4 3 1 1 2 2 2 3 2 2 1 1 1 1 -0 -1 -1 -1 -1 -1 -0 0 1
10 10 9 9 8 8 8 6 5 5 5 2 1 1 1 1 2 4 3 3 3 2 2 1 1 -0 -1 -1 -1 -1 -2 -1 -1
10 10 10 9 9 9 8 7 6 6 6 4 3 1 2 2 2 2 3 4 4 3 3 3 2 2 1 -1 -0 -0 -1 -1 -1
11 11 10 10 10 10 9 9 8 7 6 7 6 4 3 2 3 3 3 4 4 4 4 4 4 3 3 2 1 -0 -0 -0 -1
12 11 11 11 10 10 10 9 9 9 7 7 8 7 8 7 2 3 4 3 5 5 5 4 5 4 4 4 4 2 2 1 -1
12 12 11 11 11 11 10 9 9 9 10 7 7 7 7 9 7 4 5 4 4 5 5 4 4 5 5 5 5 5 4 3 0
13 12 12 12 11 11 11 10 10 9 10 10 9 8 8 8 8 7 7 5 4 4 3 3 5 5 5 5 6 5 4 3 1